DW1035 Weather Reports


Display with metric or nautical units.
time (UTC)temp
F
wind
direction
speed
MPH
gust
MPH
rain 1hr
in
rain 24hr
in
rain mn
in
humidity
%
barometer
mb
20260905010507 66 0 1.0 1.0 0.00 0.13 0.09 97 1003.1
20260905010006 67 52 1.0 1.0 0.00 0.13 0.09 98 1003.1
20260905004506 67 291 1.0 1.0 0.00 0.13 0.09 98 1003.0
20260905004006 67 328 1.0 1.0 0.00 0.13 0.09 98 1003.1
20260905003507 67 102 1.0 1.0 0.00 0.13 0.09 98 1003.1
20260905003006 67 20 1.0 2.0 0.00 0.13 0.09 98 1003.1
20260905001506 68 8 1.0 1.0 0.00 0.13 0.09 97 1003.1
20260905001007 68 11 1.0 1.0 0.00 0.13 0.09 97 1003.0
20260905000506 68 48 1.0 1.0 0.00 0.13 0.09 96 1003.0
20260905000006 68 96 1.0 1.0 0.00 0.13 0.09 96 1003.0
20260904234006 68 339 1.0 1.0 0.00 0.13 0.09 96 1002.6
20260904233506 69 297 1.0 2.0 0.00 0.13 0.09 96 1002.7
20260904233006 69 47 1.0 2.0 0.00 0.13 0.09 96 1002.6
20260904231506 69 78 1.0 1.0 0.00 0.13 0.09 95 1002.6
20260904231006 69 359 1.0 2.0 0.00 0.13 0.09 95 1002.6
20260904230506 69 310 1.0 2.0 0.00 0.13 0.09 94 1002.5
20260904230006 69 57 1.0 1.0 0.00 0.13 0.09 94 1002.6
20260904224506 70 46 1.0 1.0 0.00 0.13 0.09 92 1002.6
20260904224006 70 300 1.0 2.0 0.00 0.13 0.09 91 1002.5
20260904223505 70 72 1.0 1.0 0.00 0.13 0.09 91 1002.4
20260904221505 70 288 1.0 2.0 0.00 0.13 0.09 89 1002.5
20260904220505 70 290 1.0 2.0 0.00 0.13 0.09 89 1002.6
20260904220006 70 87 1.0 2.0 0.01 0.13 0.09 89 1002.5
20260904214506 71 303 1.0 2.0 0.01 0.13 0.09 89 1002.5
20260904214006 71 60 1.0 2.0 0.01 0.13 0.09 89 1002.5
20260904213506 71 323 1.0 2.0 0.01 0.13 0.09 88 1002.5
20260904213005 71 286 1.0 2.0 0.01 0.13 0.09 88 1002.5
20260904211505 71 82 1.0 1.0 0.01 0.13 0.09 87 1002.5
20260904211006 71 81 1.0 1.0 0.01 0.13 0.09 87 1002.5
20260904210505 71 70 1.0 1.0 0.01 0.13 0.09 88 1002.6
20260904210005 71 83 1.0 2.0 0.00 0.13 0.09 87 1002.6
20260904204505 71 286 1.0 1.0 0.00 0.12 0.09 87 1002.4
20260904204005 71 314 1.0 2.0 0.00 0.12 0.09 87 1002.2
20260904203505 71 327 1.0 3.0 0.00 0.12 0.09 86 1002.2
20260904203006 71 324 1.0 3.0 0.00 0.12 0.09 86 1002.2
20260904201505 72 289 1.0 3.0 0.00 0.12 0.09 85 1002.3
20260904201005 73 58 1.0 3.0 0.00 0.12 0.09 83 1002.2
20260904200505 73 302 2.0 2.0 0.00 0.12 0.09 82 1002.3
20260904200005 73 290 2.0 3.0 0.00 0.12 0.09 82 1002.2
20260904194505 74 50 1.0 3.0 0.00 0.12 0.09 81 1002.2
20260904194005 75 309 1.0 3.0 0.00 0.12 0.09 80 1002.2
20260904193505 75 296 1.0 3.0 0.00 0.12 0.09 79 1002.1
20260904193005 76 299 3.0 5.0 0.00 0.12 0.09 78 1002.0
20260904191505 76 290 2.0 5.0 0.06 0.12 0.09 77 1002.1
20260904191005 77 303 3.0 5.0 0.06 0.12 0.09 77 1002.2
20260904190505 77 348 1.0 6.0 0.06 0.12 0.09 78 1002.4
20260904184505 75 14 1.0 2.0 0.09 0.12 0.11 80 1002.6
20260904184004 75 300 2.0 3.0 0.11 0.12 0.11 82 1002.6
20260904183505 74 319 1.0 2.0 0.11 0.12 0.11 85 1002.6
20260904183005 74 318 1.0 2.0 0.11 0.12 0.11 89 1002.7
20260904181504 72 46 1.0 2.0 0.02 0.04 0.02 90 1002.8
20260904181005 71 283 1.0 2.0 0.02 0.04 0.02 90 1002.9
20260904180505 71 66 1.0 1.0 0.02 0.04 0.02 90 1003.0
20260904180004 71 47 1.0 2.0 0.02 0.04 0.02 89 1002.9
20260904174505 72 355 1.0 2.0 0.02 0.02 0.02 86 1002.9
20260904174005 71 283 2.0 3.0 0.00 0.00 0.00 86 1002.7
20260904173504 71 300 2.0 3.0 0.00 0.00 0.00 85 1002.8
20260904171504 71 7 3.0 5.0 0.00 0.00 0.00 86 1002.8
20260904171004 71 301 2.0 5.0 0.00 0.00 0.00 86 1002.9
20260904170505 70 296 3.0 5.0 0.00 0.00 0.00 87 1003.1
20260904170004 71 314 2.0 5.0 0.00 0.00 0.00 87 1003.1
20260904164505 72 69 2.0 3.0 0.00 0.00 0.00 85 1003.0
20260904164004 72 294 2.0 9.0 0.00 0.00 0.00 84 1002.9
20260904163504 73 319 4.0 6.0 0.00 0.00 0.00 83 1003.0
20260904163004 72 42 2.0 6.0 0.00 0.00 0.00 83 1003.0
20260904161504 74 315 4.0 9.0 0.00 0.00 0.00 81 1003.2
20260904161004 75 40 4.0 9.0 0.00 0.00 0.00 80 1003.3
20260904160504 76 28 4.0 8.0 0.00 0.00 0.00 79 1003.2
20260904160004 77 57 2.0 12.0 0.00 0.00 0.00 77 1003.2
20260904154504 78 50 2.0 7.0 0.00 0.00 0.00 69 1003.2
20260904154003 78 45 2.0 7.0 0.00 0.00 0.00 73 1003.3
20260904153504 77 22 3.0 7.0 0.00 0.00 0.00 71 1003.2
20260904153004 77 56 2.0 7.0 0.00 0.00 0.00 72 1003.2
20260904151504 76 42 2.0 10.0 0.00 0.00 0.00 77 1003.4
20260904151004 76 315 3.0 8.0 0.00 0.00 0.00 76 1003.5
20260904150504 75 317 3.0 8.0 0.00 0.00 0.00 78 1003.6
20260904150004 75 24 1.0 9.0 0.00 0.00 0.00 80 1003.6
20260904144504 73 298 3.0 12.0 0.00 0.00 0.00 82 1003.7
20260904144004 73 278 3.0 8.0 0.00 0.00 0.00 82 1003.7
20260904143508 73 316 4.0 9.0 0.00 0.00 0.00 83 1003.8
20260904141507 72 338 2.0 6.0 0.00 0.00 0.00 86 1003.9
20260904141007 71 357 1.0 3.0 0.00 0.00 0.00 87 1003.9
20260904140507 71 51 2.0 2.0 0.00 0.00 0.00 87 1003.9
20260904140007 71 45 2.0 3.0 0.00 0.00 0.00 89 1003.9
20260904134507 69 324 2.0 3.0 0.00 0.00 0.00 91 1003.9
20260904134007 69 17 2.0 3.0 0.00 0.00 0.00 92 1003.9
20260904131507 66 322 2.0 5.0 0.00 0.00 0.00 100 1004.0
20260904131007 66 350 2.0 8.0 0.00 0.00 0.00 100 1004.0
20260904130507 66 28 3.0 7.0 0.00 0.00 0.00 100 1004.0
20260904124507 65 349 3.0 7.0 0.00 0.00 0.00 100 1004.2
20260904124007 65 346 2.0 10.0 0.00 0.00 0.00 100 1004.2
20260904123006 65 14 3.0 12.0 0.00 0.00 0.00 100 1004.3
20260904121507 65 20 5.0 12.0 0.00 0.00 0.00 100 1004.3
20260904120506 65 349 3.0 8.0 0.00 0.00 0.00 100 1004.2
20260904120007 65 3 5.0 8.0 0.00 0.00 0.00 100 1004.2
20260904114507 64 169 1.0 1.0 0.00 0.00 0.00 100 1004.1
20260904114006 64 166 1.0 1.0 0.00 0.00 0.00 100 1004.0
20260904113007 64 163 1.0 1.0 0.00 0.00 0.00 100 1003.9
20260904111506 64 166 1.0 1.0 0.00 0.00 0.00 100 1003.9
20260904111007 64 163 1.0 1.0 0.00 0.00 0.00 100 1003.9
20260904110006 64 161 1.0 1.0 0.00 0.00 0.00 100 1003.9
20260904104506 64 158 1.0 1.0 0.00 0.00 0.00 100 1003.9
20260904103507 64 158 1.0 5.0 0.00 0.00 0.00 100 1003.8
20260904103007 64 157 2.0 9.0 0.00 0.00 0.00 100 1003.8
20260904101006 64 142 6.0 10.0 0.00 0.00 0.00 100 1003.9
20260904100506 64 137 5.0 8.0 0.00 0.00 0.00 100 1003.9
20260904100006 64 147 2.0 10.0 0.00 0.00 0.00 100 1003.8
20260904094506 64 143 2.0 5.0 0.00 0.01 0.00 100 1003.9
20260904094006 64 155 1.0 5.0 0.00 0.01 0.00 100 1003.9
20260904091506 64 149 2.0 7.0 0.00 0.17 0.00 100 1003.9
20260904091006 64 180 2.0 6.0 0.00 0.20 0.00 100 1004.0
20260904090506 64 151 2.0 8.0 0.00 0.24 0.00 100 1003.9
20260904090006 64 168 2.0 7.0 0.00 0.25 0.00 100 1003.9
20260904084006 64 161 1.0 7.0 0.00 0.25 0.00 100 1003.7
20260904083506 64 159 2.0 7.0 0.00 0.25 0.00 100 1003.7
20260904081005 64 135 3.0 6.0 0.00 0.25 0.00 100 1003.9
20260904080506 64 157 1.0 7.0 0.00 0.25 0.00 100 1003.8
20260904080006 64 159 2.0 7.0 0.00 0.25 0.00 100 1003.9
20260904074005 64 152 1.0 7.0 0.00 0.25 0.00 100 1004.0
20260904073506 64 153 1.0 7.0 0.00 0.25 0.00 100 1004.0
20260904071005 64 165 2.0 9.0 0.00 0.25 0.00 100 1004.1
20260904070507 64 128 3.0 7.0 0.00 0.25 0.00 100 1004.2
20260904070005 64 136 1.0 5.0 0.00 0.25 0.00 100 1004.3
20260904064505 64 173 2.0 5.0 0.00 0.25 0.00 100 1004.4
20260904064006 64 154 1.0 2.0 0.00 0.25 0.00 100 1004.4
20260904063505 64 172 1.0 2.0 0.00 0.25 0.00 100 1004.4
20260904063006 64 129 1.0 3.0 0.00 0.25 0.00 100 1004.5
20260904061506 64 134 2.0 5.0 0.00 0.25 0.00 100 1004.8
20260904061005 64 148 1.0 5.0 0.00 0.25 0.00 100 1004.9
20260904060505 64 162 1.0 5.0 0.00 0.25 0.00 100 1005.0
20260904054505 64 167 0.0 5.0 0.00 0.25 0.00 100 1005.1
20260904054005 64 139 2.0 7.0 0.00 0.25 0.00 100 1005.1
20260904053505 64 157 1.0 3.0 0.00 0.25 0.00 100 1005.1
20260904053005 64 153 2.0 5.0 0.00 0.25 0.00 100 1005.1
20260904051505 64 106 2.0 5.0 0.00 0.25 0.00 100 1005.2
20260904051005 64 127 1.0 6.0 0.00 0.25 0.00 100 1005.3
20260904050505 64 90 2.0 6.0 0.00 0.25 0.00 100 1005.2
20260904044006 64 77 2.0 6.0 0.00 0.25 0.00 100 1005.6
20260904043505 64 134 3.0 5.0 0.00 0.25 0.00 100 1005.7
20260904043005 64 200 1.0 7.0 0.00 0.25 0.00 100 1005.8
20260904041505 64 31 3.0 7.0 0.00 0.25 0.00 100 1005.8
20260904040505 64 349 3.0 6.0 0.00 0.25 0.00 100 1005.8
20260904040005 64 323 5.0 7.0 0.00 0.25 0.00 100 1005.9
20260904034505 64 187 3.0 7.0 0.00 0.25 0.22 100 1006.1
20260904033504 65 317 3.0 8.0 0.00 0.25 0.22 100 1006.2
20260904033005 65 357 3.0 8.0 0.00 0.25 0.22 100 1006.2
20260904031005 65 38 2.0 7.0 0.00 0.25 0.22 100 1006.1
20260904030004 65 16 3.0 9.0 0.00 0.25 0.22 99 1006.0
20260904024505 65 5 2.0 6.0 0.00 0.25 0.22 99 1006.1
20260904024005 65 15 3.0 7.0 0.00 0.25 0.22 99 1006.2
20260904023505 65 340 3.0 7.0 0.00 0.25 0.22 99 1006.2
20260904023007 65 21 3.0 8.0 0.00 0.25 0.22 99 1006.4
20260904021507 65 341 3.0 6.0 0.00 0.25 0.22 99 1006.4
20260904020505 65 20 3.0 8.0 0.00 0.25 0.22 99 1006.6
20260904020004 65 343 3.0 8.0 0.00 0.25 0.22 99 1006.5
20260904014505 65 11 4.0 7.0 0.00 0.25 0.22 99 1006.6
20260904011504 65 10 3.0 6.0 0.00 0.25 0.22 99 1006.8
20260904011004 65 0 2.0 6.0 0.00 0.25 0.22 98 1006.8